period_start,C,m1,H,J0,J1,J2,J3,J4,J5,JA,JB,JC,JD,JJ,JK,JN,#
2014-01-21 00:00:02,0.53,6.02,0.50,15.03,21.09,24.57,6.28,32.04,1024.44,2060.00,1836.65,2030.80,2210.08,349.23,335.20,16.42,0000 0000 0000 0000 000000
2014-01-21 00:01:03,0.55,6.02,1.00,15.03,21.09,24.58,6.27,31.92,1024.44,2060.00,1836.19,2030.30,2209.48,350.37,335.56,16.42,0000 0000 0000 0000 000000
2014-01-21 00:02:03,0.53,6.02,1.00,15.04,21.09,24.58,6.30,31.88,1024.43,2060.00,1835.57,2029.95,2209.14,349.89,335.54,16.43,0000 0000 0000 0000 000000
2014-01-21 00:03:03,0.47,6.03,1.00,15.03,21.09,24.60,6.32,31.71,1024.43,2060.00,1835.09,2029.39,2208.63,349.32,334.84,16.43,0000 0000 0000 0000 000000
2014-01-21 00:04:03,0.58,6.03,1.00,15.02,21.09,24.60,6.37,31.88,1024.43,2060.00,1834.49,2029.11,2208.22,350.22,335.61,16.44,0000 0000 0000 0000 000000
2014-01-21 00:05:04,0.44,6.03,1.00,15.02,21.09,24.57,6.35,31.83,1024.44,2060.00,1834.01,2028.65,2207.76,349.86,335.37,16.45,0000 0000 0000 0000 000000
2014-01-21 00:06:04,0.50,6.04,1.00,15.02,21.09,24.61,6.45,31.79,1024.43,2060.02,1833.43,2028.24,2207.28,350.09,335.59,16.45,0000 0000 0000 0000 000000
2014-01-21 00:07:04,0.54,6.04,1.00,15.02,21.09,24.61,6.43,31.83,1024.43,2060.02,1832.94,2027.95,2206.91,350.36,335.84,16.46,0000 0000 0000 0000 000000
2014-01-21 00:08:04,0.38,6.04,1.00,15.02,21.09,24.58,6.34,31.75,1024.43,2060.01,1832.37,2027.42,2206.37,350.34,335.84,16.46,0000 0000 0000 0000 000000
2014-01-21 00:09:05,0.63,6.04,1.00,15.00,21.08,24.59,6.23,31.75,1024.44,2060.01,1831.91,2027.14,2206.06,349.87,335.55,16.47,0000 0000 0000 0000 000000
2014-01-21 00:10:05,0.35,6.05,1.00,15.02,21.08,24.58,6.24,31.67,1024.43,2060.00,1831.34,2026.63,2205.50,349.64,335.15,16.48,0000 0000 0000 0000 000000
2014-01-21 00:11:05,0.61,6.05,1.00,15.01,21.08,24.57,6.17,31.79,1024.45,2060.02,1830.75,2026.22,2205.14,349.58,335.11,16.48,0000 0000 0000 0000 000000
2014-01-21 00:12:05,0.51,6.05,1.00,15.01,21.07,24.60,6.17,31.58,1024.44,2060.01,1830.26,2025.83,2204.59,348.82,334.38,16.49,0000 0000 0000 0000 000000
2014-01-21 00:13:06,0.47,6.06,1.00,15.00,21.07,24.60,6.20,31.63,1024.44,2060.00,1829.68,2025.32,2204.20,350.19,335.70,16.49,0000 0000 0000 0000 000000
2014-01-21 00:14:06,0.57,6.06,1.00,15.01,21.07,24.60,6.38,31.79,1024.45,2060.00,1829.20,2024.98,2203.73,350.44,335.94,16.50,0000 0000 0000 0000 000000
2014-01-21 00:15:06,0.40,6.06,1.00,15.01,21.07,24.58,6.19,31.63,1024.43,2060.00,1828.58,2024.43,2203.27,349.40,334.93,16.50,0000 0000 0000 0000 000000
2014-01-21 00:16:06,0.65,6.07,1.00,15.00,21.07,24.56,6.22,31.63,1024.44,2060.00,1828.14,2024.16,2202.89,349.85,335.38,16.51,0000 0000 0000 0000 000000
2014-01-21 00:17:06,0.36,6.07,1.00,14.99,21.07,24.58,6.13,31.63,1024.43,2060.02,1827.53,2023.82,2202.35,349.82,335.35,16.52,0000 0000 0000 0000 000000
2014-01-21 00:18:07,0.56,6.07,1.00,14.99,21.07,24.59,6.35,31.75,1024.44,2060.02,1827.08,2023.32,2202.06,349.68,335.57,16.52,0000 0000 0000 0000 000000
2014-01-21 00:19:07,0.42,6.07,1.00,14.99,21.07,24.62,6.42,31.88,1024.45,2060.01,1826.50,2022.96,2201.47,350.65,335.89,16.53,0000 0000 0000 0000 000000
2014-01-21 00:20:07,0.55,6.08,1.00,14.99,21.07,24.59,6.55,31.83,1024.45,2060.01,1826.01,2022.40,2201.14,351.02,336.55,16.53,0000 0000 0000 0000 000000
2014-01-21 00:21:07,0.51,6.08,1.00,15.01,21.07,24.61,6.35,31.79,1024.45,2060.02,1825.40,2022.12,2200.65,349.97,335.49,16.54,0000 0000 0000 0000 000000
2014-01-21 00:22:08,0.53,6.08,1.00,15.00,21.07,24.62,6.45,31.79,1024.45,2060.03,1824.95,2021.61,2200.23,350.78,336.07,16.55,0000 0000 0000 0000 000000
2014-01-21 00:23:08,0.50,6.09,1.00,14.99,21.07,24.61,6.24,31.58,1024.44,2060.03,1824.39,2021.22,2199.81,349.81,335.30,16.55,0000 0000 0000 0000 000000
2014-01-21 00:24:08,0.50,6.09,1.00,14.99,21.07,24.60,6.23,31.58,1024.43,2060.03,1823.79,2020.89,2199.31,350.04,335.46,16.56,0000 0000 0000 0000 000000
2014-01-21 00:25:08,0.49,6.09,1.00,14.99,21.07,24.60,6.29,31.58,1024.46,2060.03,1823.26,2020.36,2198.95,349.46,335.00,16.56,0000 0000 0000 0000 000000
2014-01-21 00:26:09,0.53,6.09,1.00,14.99,21.07,24.62,6.40,31.88,1024.45,2060.03,1822.68,2020.08,2198.38,350.72,336.16,16.57,0000 0000 0000 0000 000000
2014-01-21 00:27:09,0.49,6.10,1.00,15.00,21.07,24.58,6.24,31.92,1024.46,2060.01,1822.16,2019.50,2198.01,350.24,335.77,16.58,0000 0000 0000 0000 000000
2014-01-21 00:28:09,0.52,6.10,1.00,15.00,21.07,24.57,6.13,31.79,1024.46,2060.02,1821.52,2019.16,2197.45,348.94,334.47,16.58,0000 0000 0000 0000 000000
2014-01-21 00:29:09,0.56,6.10,1.00,15.01,21.06,24.56,6.21,31.79,1024.45,2060.03,1821.01,2018.65,2197.13,349.64,335.18,16.59,0000 0000 0000 0000 000000
2014-01-21 00:30:10,0.51,6.11,1.00,14.99,21.06,24.59,6.42,32.00,1024.43,2060.02,1820.40,2018.24,2196.57,350.44,335.59,16.59,0000 0000 0000 0000 000000
2014-01-21 00:31:10,0.55,6.11,1.00,14.99,21.06,24.63,6.34,31.79,1024.44,2060.01,1819.90,2017.92,2196.19,350.35,335.69,16.60,0000 0000 0000 0000 000000
2014-01-21 00:32:10,0.42,6.11,1.00,14.99,21.05,24.61,6.07,31.88,1024.44,2060.02,1819.33,2017.37,2195.64,349.72,335.41,16.60,0000 0000 0000 0000 000000
2014-01-21 00:33:10,0.61,6.12,1.00,14.99,21.05,24.55,6.51,31.96,1024.44,2060.02,1818.78,2017.08,2195.23,350.82,336.29,16.61,0000 0000 0000 0000 000000
2014-01-21 00:34:11,0.46,6.12,1.00,14.99,21.05,24.55,6.33,31.92,1024.43,2060.04,1818.25,2016.54,2194.81,349.99,335.51,16.62,0000 0000 0000 0000 000000
2014-01-21 00:35:11,0.56,6.12,1.00,14.99,21.04,24.58,6.27,31.88,1024.43,2060.04,1817.62,2016.18,2194.31,350.45,336.19,16.62,0000 0000 0000 0000 000000
2014-01-21 00:36:11,0.50,6.13,1.00,14.99,21.04,24.58,6.31,31.92,1024.43,2060.02,1817.13,2015.91,2193.93,349.21,334.77,16.63,0000 0000 0000 0000 000000
2014-01-21 00:37:11,0.37,6.13,1.00,14.99,21.04,24.56,6.35,31.88,1024.43,2060.00,1816.54,2015.38,2193.38,350.00,335.53,16.63,0000 0000 0000 0000 000000
2014-01-21 00:38:12,0.64,6.13,1.00,14.99,21.04,24.58,6.22,32.08,1024.43,2060.00,1816.11,2014.93,2193.03,349.21,334.78,16.64,0000 0000 0000 0000 000000
2014-01-21 00:39:12,0.44,6.13,1.00,14.97,21.04,24.56,6.25,32.04,1024.43,2060.02,1815.52,2014.38,2192.47,350.31,335.64,16.65,0000 0000 0000 0000 000000
2014-01-21 00:40:12,0.66,6.14,1.00,14.97,21.04,24.57,6.38,31.96,1024.43,2060.03,1815.04,2014.09,2192.13,350.74,336.22,16.65,0000 0000 0000 0000 000000
2014-01-21 00:41:12,0.42,6.14,1.00,14.99,21.04,24.56,6.25,31.96,1024.43,2060.04,1814.43,2013.57,2191.58,349.30,334.86,16.66,0000 0000 0000 0000 000000
2014-01-21 00:42:12,0.61,6.14,1.00,14.98,21.04,24.56,6.36,32.04,1024.43,2060.04,1813.97,2013.20,2191.20,350.08,335.62,16.66,0000 0000 0000 0000 000000
2014-01-21 00:43:13,0.44,6.15,1.00,14.98,21.04,24.55,6.22,32.08,1024.43,2060.03,1813.38,2012.82,2190.74,349.69,335.19,16.67,0000 0000 0000 0000 000000
2014-01-21 00:44:13,0.48,6.15,1.00,14.99,21.04,24.60,6.42,32.08,1024.43,2060.05,1812.94,2012.31,2190.27,349.75,335.30,16.67,0000 0000 0000 0000 000000
2014-01-21 00:45:13,0.53,6.15,1.00,14.97,21.04,24.57,6.30,32.00,1024.43,2060.05,1812.38,2012.04,2189.90,350.17,335.59,16.68,0000 0000 0000 0000 000000
2014-01-21 00:46:13,0.46,6.15,1.00,14.97,21.04,24.57,6.18,31.83,1024.43,2060.04,1811.82,2011.52,2189.36,349.52,335.10,16.69,0000 0000 0000 0000 000000
2014-01-21 00:47:14,0.57,6.16,1.00,14.99,21.04,24.58,6.27,31.83,1024.43,2060.06,1811.30,2011.19,2189.07,349.58,335.06,16.69,0000 0000 0000 0000 000000
2014-01-21 00:48:14,0.47,6.16,1.00,14.99,21.04,24.57,6.34,31.96,1024.43,2060.04,1810.75,2010.73,2188.52,349.76,335.30,16.70,0000 0000 0000 0000 000000
2014-01-21 00:49:14,0.51,6.16,1.00,14.99,21.04,24.53,6.33,31.71,1024.43,2060.06,1810.26,2010.28,2188.17,350.43,335.94,16.70,0000 0000 0000 0000 000000
2014-01-21 00:50:15,0.53,6.17,1.00,14.99,21.04,24.55,6.13,31.79,1024.43,2060.04,1809.71,2010.04,2187.66,349.50,335.05,16.71,0000 0000 0000 0000 000000
2014-01-21 00:51:15,0.41,6.17,1.00,15.00,21.03,24.57,6.27,31.67,1024.42,2060.04,1809.23,2009.51,2187.24,350.84,336.29,16.72,0000 0000 0000 0000 000000
2014-01-21 00:52:15,0.56,6.17,1.00,15.01,21.03,24.58,6.18,31.75,1024.40,2060.03,1808.60,2009.18,2186.82,349.47,334.98,16.72,0000 0000 0000 0000 000000
2014-01-21 00:53:15,0.47,6.18,1.00,15.00,21.02,24.58,6.19,32.04,1024.41,2060.01,1808.16,2008.74,2186.33,350.21,335.72,16.73,0000 0000 0000 0000 000000
2014-01-21 00:54:16,0.49,6.18,1.00,14.99,21.02,24.56,6.23,31.88,1024.41,2060.03,1807.56,2008.28,2185.98,349.81,335.68,16.73,0000 0000 0000 0000 000000
2014-01-21 00:55:16,0.53,6.18,1.00,14.98,21.02,24.57,6.38,31.88,1024.42,2060.03,1807.13,2008.04,2185.43,349.85,335.39,16.74,0000 0000 0000 0000 000000
2014-01-21 00:56:16,0.43,6.18,1.00,14.99,21.02,24.58,6.32,31.92,1024.42,2060.04,1806.52,2007.52,2185.14,350.04,335.57,16.75,0000 0000 0000 0000 000000
2014-01-21 00:57:17,0.55,6.19,1.00,14.99,21.02,24.58,6.44,32.13,1024.41,2060.10,1806.09,2007.18,2184.68,350.50,336.00,16.75,0000 0000 0000 0000 000000
2014-01-21 00:58:17,0.51,6.19,1.00,14.99,21.02,24.57,6.14,31.96,1024.42,2060.08,1805.48,2006.77,2184.25,349.52,335.47,16.76,0000 0000 0000 0000 000000
2014-01-21 00:59:17,0.52,6.19,1.00,14.99,21.02,24.56,6.35,31.96,1024.43,2060.06,1805.01,2006.28,2183.78,349.95,335.48,16.76,0000 0000 0000 0000 000000
2014-01-21 01:00:17,0.48,6.20,1.00,15.01,21.02,24.58,6.21,32.04,1024.43,2060.05,1804.41,2005.99,2183.29,349.76,335.09,16.77,0000 0000 0000 0000 000000
2014-01-21 01:01:18,0.50,6.20,1.00,14.99,21.02,24.59,6.44,31.96,1024.41,2060.08,1803.95,2005.48,2182.98,350.21,335.72,16.77,0000 0000 0000 0000 000000
2014-01-21 01:02:18,0.51,6.20,1.00,14.97,21.02,24.57,6.17,32.00,1024.42,2060.10,1803.37,2005.16,2182.42,349.34,334.92,16.78,0000 0000 0000 0000 000000
2014-01-21 01:03:18,0.58,6.21,1.00,14.97,21.02,24.58,6.11,31.79,1024.41,2060.06,1802.77,2004.64,2182.00,348.80,334.40,16.79,0000 0000 0000 0000 000000
2014-01-21 01:04:18,0.49,6.21,1.00,14.97,21.02,24.60,6.11,31.83,1024.40,2060.03,1802.28,2004.23,2181.43,348.82,334.50,16.79,0000 0000 0000 0000 000000
2014-01-21 01:05:19,0.50,6.21,1.00,14.94,21.02,24.59,6.22,32.08,1024.43,2060.01,1801.71,2003.85,2181.08,349.27,335.18,16.80,0000 0000 0000 0000 000000
2014-01-21 01:06:19,0.48,6.21,1.00,14.95,21.02,24.56,6.33,32.13,1024.39,2060.03,1801.23,2003.33,2180.52,349.98,335.51,16.80,0000 0000 0000 0000 000000
2014-01-21 01:07:19,0.58,6.22,1.00,14.96,21.02,24.53,6.22,32.13,1024.41,2060.03,1800.63,2003.04,2180.17,349.41,334.99,16.81,0000 0000 0000 0000 000000
2014-01-21 01:08:20,0.47,6.22,1.00,14.94,21.02,24.54,6.39,32.00,1024.40,2060.04,1800.16,2002.49,2179.69,349.82,335.39,16.82,0000 0000 0000 0000 000000
2014-01-21 01:09:20,0.56,6.22,1.00,14.94,21.02,24.52,6.30,31.88,1024.41,2060.05,1799.53,2002.14,2179.23,350.28,336.08,16.82,0000 0000 0000 0000 000000
2014-01-21 01:10:20,0.56,6.23,1.00,14.96,21.02,24.54,6.23,31.83,1024.42,2060.04,1799.04,2001.58,2178.71,349.31,335.07,16.83,0000 0000 0000 0000 000000
2014-01-21 01:11:20,0.53,6.23,1.00,14.97,21.02,24.52,6.38,31.88,1024.40,2060.05,1798.42,2001.21,2178.26,350.38,335.92,16.83,0000 0000 0000 0000 000000
2014-01-21 01:12:21,0.52,6.23,1.00,14.94,21.02,24.53,6.29,31.92,1024.35,2060.06,1797.93,2000.86,2177.87,350.50,335.88,16.84,0000 0000 0000 0000 000000
2014-01-21 01:13:21,0.47,6.24,1.00,14.94,21.02,24.53,6.34,31.88,1024.31,2060.05,1797.36,2000.33,2177.33,350.44,335.97,16.84,0000 0000 0000 0000 000000
2014-01-21 01:14:21,0.60,6.24,1.00,14.94,21.01,24.53,6.28,31.67,1024.31,2060.07,1796.76,2000.07,2176.99,350.48,336.00,16.85,0000 0000 0000 0000 000000
2014-01-21 01:15:22,0.49,6.24,1.00,14.94,21.01,24.55,6.45,32.00,1024.31,2060.09,1796.23,1999.53,2176.42,351.04,336.54,16.86,0000 0000 0000 0000 000000
2014-01-21 01:16:22,0.62,6.25,1.00,14.95,21.01,24.57,6.39,31.96,1024.31,2060.07,1795.56,1999.17,2176.04,350.55,336.07,16.86,0000 0000 0000 0000 000000
2014-01-21 01:17:22,0.51,6.25,1.00,14.95,21.01,24.55,6.26,31.92,1024.39,2060.09,1795.09,1998.67,2175.47,349.28,335.04,16.87,0000 0000 0000 0000 000000
2014-01-21 01:18:22,0.56,6.25,1.00,14.95,21.01,24.54,6.05,31.79,1024.32,2060.07,1794.45,1998.25,2175.16,349.28,334.86,16.87,0000 0000 0000 0000 000000
2014-01-21 01:19:22,0.51,6.26,1.00,14.95,21.00,24.54,6.14,31.92,1024.32,2060.07,1793.98,1997.85,2174.72,349.43,335.00,16.88,0000 0000 0000 0000 000000
2014-01-21 01:20:23,0.47,6.26,1.00,14.96,21.00,24.56,6.16,31.92,1024.31,2060.08,1793.38,1997.33,2174.26,349.20,334.79,16.89,0000 0000 0000 0000 000000
2014-01-21 01:21:23,0.60,6.26,1.00,14.94,21.00,24.56,6.17,31.83,1024.34,2060.14,1793.02,1997.04,2173.81,349.56,335.13,16.89,0000 0000 0000 0000 000000
2014-01-21 01:22:23,0.49,6.26,1.00,14.94,21.00,24.52,6.18,31.83,1024.33,2060.18,1792.44,1996.48,2173.30,349.61,335.30,16.90,0000 0000 0000 0000 000000
2014-01-21 01:23:24,0.61,6.27,1.00,14.94,20.99,24.50,6.52,31.88,1024.22,2060.15,1792.06,1996.16,2172.73,350.54,336.04,16.90,0000 0000 0000 0000 000000
2014-01-21 01:24:24,0.45,6.27,1.00,14.94,20.99,24.49,6.25,31.83,1024.25,2060.07,1791.47,1995.68,2172.26,349.69,335.24,16.91,0000 0000 0000 0000 000000
2014-01-21 01:25:24,0.46,6.27,1.00,14.94,20.99,24.49,6.29,31.79,1024.24,2060.09,1791.01,1995.24,2171.73,350.11,335.36,16.92,0000 0000 0000 0000 000000
2014-01-21 01:26:24,0.53,6.28,1.00,14.94,20.99,24.52,6.19,31.92,1024.28,2060.07,1790.39,1994.89,2171.25,349.11,334.65,16.92,0000 0000 0000 0000 000000
2014-01-21 01:27:25,0.54,6.28,1.00,14.94,20.99,24.54,6.38,31.96,1024.26,2060.10,1789.86,1994.36,2170.83,350.36,335.95,16.93,0000 0000 0000 0000 000000
2014-01-21 01:28:25,0.56,6.28,1.00,14.92,20.99,24.52,6.48,32.04,1024.19,2060.12,1789.32,1994.07,2170.32,350.28,335.63,16.93,0000 0000 0000 0000 000000
2014-01-21 01:29:25,0.55,6.29,1.00,14.92,20.99,24.51,6.07,31.79,1024.24,2060.11,1788.82,1993.52,2169.94,349.71,335.27,16.94,0000 0000 0000 0000 000000
2014-01-21 01:30:26,0.48,6.29,1.00,14.92,20.99,24.53,6.17,31.75,1024.25,2060.17,1788.29,1993.18,2169.37,349.55,335.13,16.94,0000 0000 0000 0000 000000
2014-01-21 01:31:26,0.60,6.29,1.00,14.92,20.99,24.51,6.38,31.92,1024.22,2060.17,1787.73,1992.79,2169.09,350.57,336.10,16.95,0000 0000 0000 0000 000000
2014-01-21 01:32:26,0.47,6.29,1.00,14.91,20.99,24.54,6.37,31.79,1024.23,2060.22,1787.25,1992.30,2168.57,350.84,336.17,16.96,0000 0000 0000 0000 000000
2014-01-21 01:33:26,0.57,6.30,1.00,14.89,20.99,24.51,6.32,31.67,1024.21,2060.25,1786.68,1992.09,2168.20,350.11,335.67,16.96,0000 0000 0000 0000 000000
2014-01-21 01:34:27,0.46,6.30,1.00,14.89,20.99,24.53,6.32,31.79,1024.23,2060.25,1786.25,1991.61,2167.93,350.05,335.63,16.97,0000 0000 0000 0000 000000
2014-01-21 01:35:27,0.46,6.30,1.00,14.91,20.99,24.53,6.43,31.88,1024.20,2060.19,1785.73,1991.23,2167.41,349.98,335.54,16.97,0000 0000 0000 0000 000000
2014-01-21 01:36:27,0.45,6.31,1.00,14.91,20.99,24.55,6.34,31.83,1024.19,2060.21,1785.27,1990.89,2167.03,349.93,335.47,16.98,0000 0000 0000 0000 000000
2014-01-21 01:37:28,0.46,6.31,1.00,14.90,20.99,24.54,6.26,31.71,1024.14,2060.21,1784.82,1990.38,2166.48,350.08,335.63,16.99,0000 0000 0000 0000 000000
2014-01-21 01:38:28,0.51,6.32,1.00,14.90,20.99,24.53,6.14,31.75,1024.09,2060.14,1784.31,1990.14,2166.16,349.56,334.99,16.99,0000 0000 0000 0000 000000
2014-01-21 01:39:28,0.33,6.32,1.00,14.89,20.99,24.48,6.38,31.63,1024.08,2060.10,1783.90,1989.75,2165.79,350.52,336.03,17.00,0000 0000 0000 0000 000000
2014-01-21 01:40:29,0.45,6.32,1.00,14.89,20.99,24.49,6.27,31.75,1024.04,2060.11,1783.36,1989.30,2165.30,349.94,335.68,17.00,0000 0000 0000 0000 000000
2014-01-21 01:41:29,0.52,6.32,1.00,14.89,20.99,24.51,6.28,31.71,1024.04,2060.17,1782.88,1989.06,2165.04,349.78,335.62,17.01,0000 0000 0000 0000 000000
2014-01-21 01:42:29,0.51,6.32,1.00,14.89,20.99,24.52,6.29,32.00,1024.04,2060.26,1782.32,1988.53,2164.49,350.12,335.69,17.01,0000 0000 0000 0000 000000
2014-01-21 01:43:30,0.55,6.33,1.00,14.89,20.99,24.52,6.45,31.79,1024.09,2060.24,1781.89,1988.19,2164.18,350.60,336.12,17.02,0000 0000 0000 0000 000000
2014-01-21 01:44:30,0.43,6.33,1.00,14.90,20.99,24.53,6.34,31.75,1024.13,2060.22,1781.35,1987.93,2163.81,350.40,335.94,17.03,0000 0000 0000 0000 000000
2014-01-21 01:45:30,0.46,6.33,1.00,14.91,20.99,24.50,6.33,31.83,1024.10,2060.22,1780.95,1987.39,2163.32,349.71,335.41,17.03,0000 0000 0000 0000 000000
2014-01-21 01:46:30,0.50,6.34,1.00,14.90,20.99,24.50,6.28,31.83,1024.08,2060.18,1780.37,1987.11,2162.91,349.99,335.57,17.04,0000 0000 0000 0000 000000
2014-01-21 01:47:31,0.48,6.34,1.00,14.90,20.99,24.50,6.32,31.88,1024.03,2060.19,1779.98,1986.60,2162.36,349.62,335.14,17.04,0000 0000 0000 0000 000000
2014-01-21 01:48:31,0.51,6.34,1.00,14.89,20.98,24.49,6.42,31.92,1024.01,2060.15,1779.39,1986.21,2162.11,350.01,335.55,17.05,0000 0000 0000 0000 000000
2014-01-21 01:49:31,0.42,6.34,1.00,14.89,20.98,24.49,6.19,31.88,1024.01,2060.11,1778.95,1985.99,2161.57,348.63,334.19,17.06,0000 0000 0000 0000 000000
2014-01-21 01:50:31,0.43,6.35,1.00,14.89,20.98,24.48,6.07,31.83,1023.97,2060.13,1778.36,1985.45,2161.20,349.26,334.79,17.06,0000 0000 0000 0000 000000
2014-01-21 01:51:32,0.51,6.35,1.00,14.89,20.97,24.49,6.40,31.92,1023.95,2060.14,1777.97,1985.16,2160.93,350.61,336.07,17.07,0000 0000 0000 0000 000000
2014-01-21 01:52:32,0.48,6.35,1.00,14.89,20.97,24.47,6.32,32.00,1023.96,2060.19,1777.41,1984.88,2160.38,350.61,336.27,17.07,0000 0000 0000 0000 000000
2014-01-21 01:53:32,0.52,6.35,1.00,14.89,20.97,24.49,6.45,32.00,1023.96,2060.32,1777.04,1984.36,2160.13,349.44,334.95,17.08,0000 0000 0000 0000 000000
2014-01-21 01:54:33,0.59,6.36,1.00,14.89,20.97,24.47,6.42,32.13,1023.95,2060.47,1776.45,1984.12,2159.78,350.12,335.61,17.09,0000 0000 0000 0000 000000
2014-01-21 01:55:33,0.53,6.36,1.00,14.89,20.97,24.48,6.35,32.08,1023.94,2060.42,1776.11,1983.88,2159.30,349.72,335.22,17.09,0000 0000 0000 0000 000000
2014-01-21 01:56:33,0.36,6.37,1.00,14.89,20.97,24.48,6.41,31.92,1023.95,2060.28,1775.53,1983.38,2158.96,350.69,336.00,17.10,0000 0000 0000 0000 000000
2014-01-21 01:57:34,0.40,6.37,1.00,14.89,20.97,24.44,6.17,31.83,1023.97,2060.31,1775.10,1983.13,2158.44,348.90,334.40,17.10,0000 0000 0000 0000 000000
2014-01-21 01:58:34,0.44,6.37,1.00,14.89,20.97,24.40,6.28,31.96,1023.97,2060.27,1774.49,1982.80,2158.15,350.32,335.67,17.11,0000 0000 0000 0000 000000
2014-01-21 01:59:34,0.45,6.37,1.00,14.89,20.97,24.47,6.26,32.04,1023.95,2060.31,1774.06,1982.32,2157.68,349.16,334.89,17.11,0000 0000 0000 0000 000000
2014-01-21 02:00:34,0.56,6.38,0.00,14.90,20.97,24.49,6.39,32.04,1023.95,2060.33,1773.45,1982.05,2157.25,350.37,335.24,17.12,0000 0000 0000 0000 000000
2014-01-21 02:01:35,0.49,6.38,0.00,14.89,20.97,24.49,6.23,32.17,1023.94,2060.26,1773.03,1981.50,2156.83,349.10,334.42,17.13,0000 0000 0000 0000 000000
2014-01-21 02:02:35,0.45,6.38,0.00,14.89,20.97,24.49,6.17,32.17,1023.94,2060.20,1772.42,1981.18,2156.32,350.04,335.52,17.13,0000 0000 0000 0000 000000
2014-01-21 02:03:35,0.44,6.38,0.00,14.89,20.97,24.49,6.51,31.83,1023.94,2060.22,1772.03,1980.86,2156.00,351.14,336.57,17.14,0000 0000 0000 0000 000000
2014-01-21 02:04:36,0.46,6.39,0.00,14.89,20.97,24.43,6.34,31.96,1023.94,2060.20,1771.44,1980.33,2155.41,350.14,335.63,17.14,0000 0000 0000 0000 000000
2014-01-21 02:05:36,0.52,6.39,0.00,14.85,20.96,24.40,6.24,31.92,1023.95,2060.18,1771.04,1980.10,2155.13,350.08,335.61,17.15,0000 0000 0000 0000 000000
2014-01-21 02:06:36,0.44,6.39,0.00,14.84,20.96,24.42,6.12,31.88,1023.95,2060.26,1770.43,1979.66,2154.71,348.90,334.49,17.16,0000 0000 0000 0000 000000
2014-01-21 02:07:37,0.56,6.39,0.00,14.83,20.96,24.44,6.42,31.96,1023.95,2060.33,1770.11,1979.25,2154.27,350.48,336.02,17.16,0000 0000 0000 0000 000000
2014-01-21 02:08:37,0.52,6.40,0.00,14.82,20.95,24.40,6.29,31.83,1023.94,2060.31,1769.55,1979.01,2153.93,350.44,335.99,17.17,0000 0000 0000 0000 000000
2014-01-21 02:09:37,0.45,6.40,0.00,14.82,20.95,24.41,6.38,31.71,1023.94,2060.38,1769.19,1978.46,2153.37,349.56,335.15,17.17,0000 0000 0000 0000 000000
2014-01-21 02:10:37,0.57,6.41,0.00,14.80,20.95,24.41,6.16,31.58,1023.95,2060.49,1768.61,1978.16,2153.10,349.46,335.08,17.18,0000 0000 0000 0000 000000
2014-01-21 02:11:38,0.58,6.41,0.00,14.76,20.95,24.43,6.08,31.63,1023.94,2060.59,1768.22,1977.86,2152.63,349.36,335.00,17.18,0000 0000 0000 0000 000000
2014-01-21 02:12:38,0.53,6.41,0.00,14.73,20.95,24.47,6.24,31.71,1023.96,2060.53,1767.75,1977.35,2152.23,349.73,335.65,17.19,0000 0000 0000 0000 000000
2014-01-21 02:13:38,0.49,6.42,0.00,14.71,20.95,24.44,6.23,31.67,1023.94,2060.57,1767.27,1977.12,2151.96,349.66,335.59,17.20,0000 0000 0000 0000 000000
2014-01-21 02:14:38,0.29,6.42,0.00,14.70,20.95,24.45,6.25,31.67,1023.95,2060.42,1766.81,1976.67,2151.42,350.14,335.49,17.20,0000 0000 0000 0000 000000
2014-01-21 02:15:39,0.50,6.42,0.00,14.72,20.95,24.44,6.22,31.75,1023.94,2060.54,1766.31,1976.25,2151.14,349.49,335.46,17.21,0000 0000 0000 0000 000000
2014-01-21 02:16:39,0.54,6.42,0.00,14.72,20.94,24.43,6.37,31.83,1023.95,2060.59,1765.94,1976.07,2150.65,350.60,335.72,17.21,0000 0000 0000 0000 000000
2014-01-21 02:17:39,0.50,6.43,0.00,14.73,20.94,24.45,6.19,31.92,1023.94,2060.63,1765.37,1975.68,2150.24,349.66,335.44,17.22,0000 0000 0000 0000 000000
2014-01-21 02:18:40,0.45,6.43,0.00,14.76,20.94,24.44,6.16,31.92,1023.95,2060.64,1765.04,1975.25,2149.94,349.62,335.27,17.23,0000 0000 0000 0000 000000
2014-01-21 02:19:40,0.49,6.43,0.00,14.76,20.94,24.43,6.38,31.92,1023.95,2060.71,1764.44,1975.03,2149.41,350.37,336.00,17.23,0000 0000 0000 0000 000000
2014-01-21 02:20:40,0.53,6.43,0.00,14.76,20.94,24.42,6.24,31.63,1023.94,2060.75,1764.08,1974.50,2149.13,349.56,335.22,17.24,0000 0000 0000 0000 000000
2014-01-21 02:21:40,0.50,6.44,0.00,14.76,20.94,24.43,6.34,31.67,1023.96,2060.72,1763.48,1974.18,2148.75,349.97,335.61,17.24,0000 0000 0000 0000 000000
2014-01-21 02:22:41,0.48,6.44,0.00,14.75,20.94,24.42,6.15,31.54,1023.94,2060.75,1763.14,1973.92,2148.29,350.19,335.68,17.25,0000 0000 0000 0000 000000
2014-01-21 02:23:41,0.47,6.44,0.00,14.77,20.94,24.42,6.21,31.88,1023.94,2060.76,1762.57,1973.38,2148.04,348.82,334.50,17.26,0000 0000 0000 0000 000000
2014-01-21 02:24:41,0.50,6.45,0.00,14.77,20.94,24.40,6.14,31.63,1023.94,2060.72,1762.18,1973.12,2147.50,349.46,335.23,17.26,0000 0000 0000 0000 000000
2014-01-21 02:25:42,0.35,6.45,0.00,14.78,20.94,24.39,6.24,31.67,1023.94,2060.62,1761.57,1972.73,2147.17,349.72,335.36,17.27,0000 0000 0000 0000 000000
2014-01-21 02:26:42,0.44,6.45,0.00,14.79,20.94,24.41,6.18,31.38,1023.94,2060.68,1761.19,1972.28,2146.78,350.18,335.78,17.27,0000 0000 0000 0000 000000
2014-01-21 02:27:42,0.52,6.45,0.00,14.78,20.93,24.42,6.28,31.58,1023.94,2060.74,1760.76,1972.06,2146.29,349.52,335.15,17.28,0000 0000 0000 0000 000000
2014-01-21 02:28:42,0.48,6.46,0.00,14.80,20.92,24.40,6.27,31.58,1023.94,2060.71,1760.28,1971.58,2146.01,349.81,335.41,17.28,0000 0000 0000 0000 000000
2014-01-21 02:29:42,0.46,6.46,0.00,14.82,20.92,24.43,6.38,31.83,1023.94,2060.61,1759.94,1971.21,2145.46,349.86,335.66,17.29,0000 0000 0000 0000 000000
2014-01-21 02:30:43,0.37,6.46,0.00,14.84,20.92,24.46,6.45,31.71,1023.94,2060.53,1759.38,1970.99,2145.14,350.68,336.20,17.30,0000 0000 0000 0000 000000
2014-01-21 02:31:43,0.32,6.46,0.00,14.84,20.92,24.47,6.02,31.58,1023.94,2060.61,1759.02,1970.49,2144.71,349.20,334.78,17.30,0000 0000 0000 0000 000000
2014-01-21 02:32:43,0.62,6.47,0.00,14.80,20.92,24.40,6.37,31.71,1023.94,2060.80,1758.42,1970.17,2144.26,350.35,335.92,17.31,0000 0000 0000 0000 000000
2014-01-21 02:33:43,0.64,6.47,0.00,14.79,20.92,24.39,6.39,31.54,1023.94,2060.87,1758.00,1969.81,2144.00,349.70,335.48,17.31,0000 0000 0000 0000 000000
2014-01-21 02:34:44,0.57,6.47,0.00,14.79,20.92,24.37,6.33,31.63,1023.94,2060.88,1757.39,1969.33,2143.45,350.08,335.68,17.32,0000 0000 0000 0000 000000
2014-01-21 02:35:44,0.54,6.48,0.00,14.79,20.92,24.39,6.28,31.58,1023.94,2060.92,1756.91,1969.08,2143.12,350.07,335.78,17.33,0000 0000 0000 0000 000000